This demonstration page uses our WeatherBlox Daily Observations layout. Learn more.

Left ArrowRight Arrow

39.51506, -84.39828

Hourly Observations for December 26, 2015

Temp ( °F °C ) Dew Point ( °F °C ) Humidity (%) Winds ( mph kmh ) Pressure ( in mb ) Visibility ( mi km ) Precip ( " mm )
12:15 am 00:15 Cloudy 49 9.6 39 3.7 67 67 NE 7 11 30.30 1026 10 16 N/A
12:35 am 00:35 Cloudy 49 9.6 38 3.5 66 66 NE 6 9 30.30 1026 10 16 N/A
12:55 am 00:55 Cloudy 49 9.6 38 3.3 65 65 ENE 7 11 30.30 1026 10 16 N/A
1:15 am 01:15 Cloudy 49 9.6 38 3.1 64 64 ENE 10 17 30.27 1025 10 16 N/A
1:35 am 01:35 Cloudy 49 9.6 38 3.3 65 65 ENE 9 15 30.27 1025 10 16 N/A
1:55 am 01:55 Cloudy 49 9.6 38 3.5 66 66 NE 8 13 30.27 1025 10 16 N/A
2:15 am 02:15 Cloudy 49 9.6 38 3.5 66 66 NE 7 11 30.27 1025 10 16 N/A
2:35 am 02:35 Cloudy 49 9.6 38 3.4 66 66 ENE 9 15 30.27 1025 10 16 N/A
2:55 am 02:55 Cloudy 49 9.6 38 3.5 66 66 ENE 9 15 30.27 1025 10 16 N/A
3:15 am 03:15 Cloudy 49 9.6 38 3.6 66 66 NE 12 19 30.27 1025 10 16 N/A
3:35 am 03:35 Cloudy 49 9.6 39 4 68 68 NE 9 15 30.27 1025 10 16 N/A
3:55 am 03:55 Cloudy 49 9.6 39 4 68 68 NE 9 15 30.27 1025 10 16 N/A
4:15 am 04:15 Cloudy 49 9.6 40 4.3 70 70 ENE 9 15 30.27 1025 10 16 N/A
4:35 am 04:35 Cloudy 49 9.6 39 4.1 69 69 ENE 6 9 30.27 1025 10 16 N/A
4:55 am 04:55 Cloudy 49 9.6 40 4.3 70 70 ENE 8 13 30.27 1025 10 16 N/A
5:15 am 05:15 Cloudy 49 9.6 40 4.5 71 71 E 7 11 30.27 1025 10 16 N/A
5:35 am 05:35 Cloudy 49 9.6 41 5 73 73 E 6 9 30.27 1025 10 16 N/A
5:55 am 05:55 Cloudy 49 9.6 42 5.6 76 76 E 7 11 30.27 1025 10 16 N/A
6:15 am 06:15 Cloudy 49 9.6 43 6 78 78 E 9 15 30.24 1024 10 16 N/A
6:35 am 06:35 Cloudy 49 9.6 43 6.2 80 80 ENE 6 9 30.24 1024 10 16 N/A
6:55 am 06:55 Cloudy 49 9.6 44 6.5 81 81 E 8 13 30.24 1024 10 16 N/A
7:15 am 07:15 Cloudy 49 9.6 44 6.5 81 81 E 6 9 30.24 1024 10 16 N/A
7:35 am 07:35 Cloudy 49 9.6 44 6.5 81 81 E 5 7 30.24 1024 10 16 N/A
7:55 am 07:55 Cloudy 49 9.6 44 6.6 82 82 E 6 9 30.24 1024 10 16 N/A
8:15 am 08:15 Cloudy 49 9.6 44 6.8 83 83 E 6 9 30.24 1024 10 16 N/A
8:35 am 08:35 Cloudy 49 9.6 44 6.8 83 83 E 7 11 30.24 1024 10 16 N/A
8:55 am 08:55 Cloudy 49 9.6 45 7 84 84 E 6 9 30.24 1024 10 16 N/A
9:15 am 09:15 Cloudy 49 9.6 45 7 84 84 E 6 9 30.24 1024 10 16 N/A
9:35 am 09:35 Cloudy 49 9.6 45 7 84 84 E 6 9 30.24 1024 10 16 N/A
9:55 am 09:55 Cloudy 49 9.6 45 7.1 85 85 E 5 7 30.24 1024 10 16 N/A
10:15 am 10:15 Cloudy with Mist and Fog 49 9.6 45 7.1 85 85 N N/A 30.24 1024 5 8 N/A
10:35 am 10:35 Cloudy with Mist and Fog 49 9.6 45 7.2 85 85 E 3 6 30.24 1024 5 8 N/A
10:55 am 10:55 Cloudy 49 9.6 45 7.2 85 85 N N/A 30.24 1024 10 16 N/A
11:15 am 11:15 Cloudy with Mist and Fog 49 9.6 45 7.2 85 85 E 3 6 30.24 1024 3 4 N/A
11:35 am 11:35 Cloudy with Mist and Fog 49 9.6 45 7.1 85 85 E 5 7 30.24 1024 3 5 N/A
11:55 am 11:55 Cloudy with Mist and Fog 49 9.6 45 7.3 86 86 N N/A 30.21 1023 2 3 N/A
12:15 pm 12:15 Cloudy with Drizzle 49 9.6 46 7.5 87 87 E 3 6 30.18 1022 1 2 N/A
12:35 pm 12:35 Cloudy with Rain 49 9.6 46 7.7 88 88 SE 3 6 30.18 1022 1 2 N/A
12:55 pm 12:55 Cloudy with Light Snow 51 10.3 47 8.5 89 89 NNE 3 6 30.15 1021 2 2 N/A
1:15 pm 13:15 Cloudy with Light Snow 51 10.3 47 8.5 89 89 NNW 3 6 30.15 1021 3 5 N/A
1:35 pm 13:35 Cloudy with Light Snow 52 11 49 9.2 89 89 N N/A 30.15 1021 4 6 N/A
1:55 pm 13:55 Cloudy with Light Rain 52 11 49 9.2 89 89 N N/A 30.15 1021 4 6 N/A
2:15 pm 14:15 Cloudy with Light Rain 55 12.5 51 10.6 88 88 E 6 9 30.12 1020 4 6 N/A
2:35 pm 14:35 Cloudy with Mist and Fog 55 12.5 51 10.6 88 88 N N/A 30.12 1020 5 8 N/A
2:55 pm 14:55 Cloudy with Light Rain 55 12.5 51 10.6 88 88 N N/A 30.12 1020 4 6 N/A
3:15 pm 15:15 Cloudy with Light Snow 55 12.5 51 10.6 88 88 N N/A 30.12 1020 3 5 N/A
3:35 pm 15:35 Cloudy with Drizzle 55 12.5 51 10.6 88 88 NE 3 6 30.12 1020 3 4 N/A
3:55 pm 15:55 Cloudy with Mist and Fog 55 12.5 51 10.6 88 88 N 3 6 30.12 1020 3 5 N/A
4:15 pm 16:15 Cloudy with Rain 55 12.5 51 10.7 89 89 N N/A 30.09 1019 2 3 N/A
4:35 pm 16:35 Cloudy with Light Rain 55 12.5 51 10.7 89 89 N N/A 30.09 1019 1 1 N/A
4:55 pm 16:55 Cloudy with Rain 55 12.5 51 10.7 89 89 N N/A 30.09 1019 1 2 N/A
5:15 pm 17:15 Cloudy with Mist and Fog 55 12.5 51 10.8 89 89 N N/A 30.09 1019 2 3 N/A
5:35 pm 17:35 Cloudy with Rain 55 12.5 52 11 91 91 N N/A 30.09 1019 2 3 N/A
5:55 pm 17:55 Cloudy with Rain 55 12.5 51 10.8 89 89 N N/A 30.09 1019 1 2 N/A
6:15 pm 18:15 Cloudy with Light Rain 55 12.5 52 11 91 91 N N/A 30.09 1019 3 4 N/A
6:35 pm 18:35 Cloudy with Mist and Fog 57 13.8 55 12.5 92 92 N N/A 30.09 1019 4 6 N/A
6:55 pm 18:55 Cloudy with Light Rain 57 14 55 12.6 91 91 N N/A 30.06 1018 4 6 N/A
7:15 pm 19:15 Cloudy with Mist and Fog 57 13.8 55 12.5 92 92 N N/A 30.06 1018 1 2 N/A
7:35 pm 19:35 Cloudy with Light Rain 60 15.3 57 13.8 91 91 N N/A 30.06 1018 3 4 N/A
7:55 pm 19:55 Cloudy with Drizzle 60 15.3 57 13.8 91 91 N N/A 30.06 1018 2 3 N/A
8:15 pm 20:15 Cloudy with Mist and Fog 59 15.2 57 13.7 91 91 N N/A 30.06 1018 1 2 N/A
8:35 pm 20:35 Cloudy with Mist and Fog 60 15.3 57 13.8 91 91 N N/A 30.06 1018 2 3 N/A
8:55 pm 20:55 Cloudy with Fog 60 15.3 57 13.9 91 91 N N/A 30.06 1018 1 1 N/A
9:15 pm 21:15 Cloudy with Fog 58 14.2 55 12.8 91 91 N N/A 30.06 1018 1 1 N/A
9:35 pm 21:35 Cloudy with Mist and Fog 60 15.3 57 14 92 92 N N/A 30.06 1018 1 2 N/A
9:55 pm 21:55 Cloudy with Mist and Fog 60 15.3 57 14 92 92 N N/A 30.03 1017 4 6 N/A
10:15 pm 22:15 Cloudy with Light Rain 60 15.3 57 14 92 92 N N/A 30.03 1017 1 1 N/A
10:35 pm 22:35 Cloudy with Mist and Fog 57 14.1 55 12.7 91 91 N N/A 30.03 1017 1 1 N/A
10:55 pm 22:55 Cloudy with Mist and Fog 59 14.9 56 13.5 91 91 N N/A 30.00 1016 1 1 N/A
11:15 pm 23:15 Cloudy with Light Rain 57 13.9 55 12.6 92 92 N N/A 30.00 1016 1 1 N/A
11:35 pm 23:35 Cloudy with Fog 57 13.8 55 12.5 92 92 N N/A 30.00 1016 1 1 N/A
11:55 pm 23:55 Cloudy with Mist and Fog 60 15.3 57 14 92 92 N N/A 30.00 1016 5 8 N/A

Powered by AerisWeather